Change the Weather History Date:

Wednesday, February 5, 2014

  Actual Average Record
Temperature  
Mean Temperature -4 °F -  
Max Temperature 0 °F 19 °F 54 °F (1963)
Min Temperature -9 °F 0 °F -27 °F (2007)
Degree Days  
Heating Degree Days 70    
Moisture  
Dew Point -14 °F    
Average Humidity 59    
Maximum Humidity 66    
Minimum Humidity 55    
Precipitation  
Precipitation 0.00 in - - ()
Sea Level Pressure  
Sea Level Pressure 30.52 in    
Wind  
Wind Speed 13 mph (NW)    
Max Wind Speed 18 mph    
Max Gust Speed -    
Visibility 10 miles    
Events      
Averages and records for this station are not official NWS values.
T = Trace of Precipitation, MM = Missing Value Source: NWS Daily Summary

Daily Weather History Graph

Daily Weather History Graph

Search for Another Location

Airport or City:

Trip Planner

Search our weather history database for the weather conditions in past years. The results will help you decide how hot, cold, wet, or windy it might be!

Date:

Astronomy

Feb. 05, 2014 Rise Set
Actual Time 7:57 AM CST 5:42 PM CST
Civil Twilight 7:24 AM CST 6:14 PM CST
Nautical Twilight 6:48 AM CST 6:52 PM CST
Astronomical Twilight 6:11 AM CST 7:28 PM CST
Moon 10:41 AM CST (2/5) 12:07 AM CST (2/5)
Length of Visible Light 10h 50m
Length of Day
9h 44m
Waxing Crescent, 39% of the Moon is Illuminated
Feb 5
Waxing Crescent
Feb 6
First Quarter
Feb 14
Full
Feb 22
Last Quarter
Mar 1
New

Hourly Weather History & Observations

Time (CST) Temp. Windchill Dew Point Humidity Pressure Visibility Wind Dir Wind Speed Gust Speed Precip Events Conditions
12:15 AM -0.4 °F -19.2 °F -13.0 °F 55% 30.53 in 10.0 mi NNW 13.8 mph - N/A   Overcast
12:35 AM -0.4 °F -17.6 °F -11.2 °F 60% 30.53 in 10.0 mi NNW 11.5 mph - N/A   Overcast
12:55 AM -0.4 °F -18.4 °F -13.0 °F 55% 30.54 in 10.0 mi NNW 12.7 mph - N/A   Overcast
1:15 AM -0.4 °F -17.6 °F -11.2 °F 60% 30.54 in 10.0 mi NNW 11.5 mph - N/A   Overcast
1:35 AM -0.4 °F -18.4 °F -13.0 °F 55% 30.54 in 10.0 mi NNW 12.7 mph - N/A   Overcast
1:55 AM -2.2 °F -20.7 °F -11.2 °F 66% 30.54 in 10.0 mi North 12.7 mph - N/A   Overcast
2:15 AM -0.4 °F -19.9 °F -13.0 °F 55% 30.55 in 10.0 mi NNW 15.0 mph - N/A   Overcast
2:35 AM -2.2 °F -21.5 °F -13.0 °F 60% 30.56 in 10.0 mi North 13.8 mph - N/A   Overcast
2:55 AM -2.2 °F -20.7 °F -13.0 °F 60% 30.56 in 10.0 mi North 12.7 mph - N/A   Overcast
3:15 AM -2.2 °F -20.7 °F -13.0 °F 60% 30.57 in 10.0 mi North 12.7 mph - N/A   Overcast
3:35 AM -2.2 °F -20.7 °F -13.0 °F 60% 30.57 in 10.0 mi North 12.7 mph - N/A   Overcast
3:55 AM -2.2 °F -19.9 °F -13.0 °F 60% 30.57 in 10.0 mi North 11.5 mph - N/A   Overcast
4:15 AM -2.2 °F -19.9 °F -11.2 °F 66% 30.57 in 10.0 mi North 11.5 mph - N/A   Overcast
4:35 AM -2.2 °F -20.7 °F -13.0 °F 60% 30.57 in 10.0 mi North 12.7 mph - N/A   Overcast
4:55 AM -2.2 °F -20.7 °F -11.2 °F 66% 30.57 in 10.0 mi North 12.7 mph - N/A   Overcast
5:15 AM -2.2 °F -18.9 °F -11.2 °F 66% 30.57 in 10.0 mi North 10.4 mph - N/A   Overcast
5:35 AM -2.2 °F -18.0 °F -11.2 °F 66% 30.57 in 10.0 mi North 9.2 mph - N/A   Overcast
5:55 AM -2.2 °F -15.6 °F -13.0 °F 60% 30.57 in 10.0 mi NNW 6.9 mph - N/A   Overcast
6:15 AM -2.2 °F -16.8 °F -13.0 °F 60% 30.57 in 10.0 mi NNW 8.1 mph - N/A   Overcast
6:35 AM -2.2 °F -15.6 °F -11.2 °F 66% 30.57 in 10.0 mi NNW 6.9 mph - N/A   Overcast
6:55 AM -2.2 °F -15.6 °F -13.0 °F 60% 30.56 in 10.0 mi NNW 6.9 mph - N/A   Overcast
7:15 AM -2.2 °F -16.8 °F -13.0 °F 60% 30.56 in 10.0 mi NNW 8.1 mph - N/A   Overcast
7:35 AM -2.2 °F -15.6 °F -13.0 °F 60% 30.56 in 10.0 mi NNW 6.9 mph - N/A   Overcast
7:55 AM -2.2 °F -16.8 °F -13.0 °F 60% 30.56 in 10.0 mi NW 8.1 mph - N/A   Overcast
8:15 AM -2.2 °F -18.0 °F -11.2 °F 66% 30.56 in 10.0 mi NW 9.2 mph - N/A   Overcast
8:35 AM -2.2 °F -18.0 °F -11.2 °F 66% 30.56 in 10.0 mi NNW 9.2 mph - N/A   Overcast
8:55 AM -2.2 °F -16.8 °F -11.2 °F 66% 30.56 in 10.0 mi NNW 8.1 mph - N/A   Overcast
9:15 AM -2.2 °F -18.0 °F -11.2 °F 66% 30.56 in 10.0 mi NNW 9.2 mph - N/A   Overcast
9:35 AM -2.2 °F -18.9 °F -13.0 °F 60% 30.56 in 10.0 mi NNW 10.4 mph - N/A   Overcast
9:55 AM -2.2 °F -18.9 °F -13.0 °F 60% 30.56 in 10.0 mi NNW 10.4 mph - N/A   Overcast
10:15 AM -0.4 °F -15.7 °F -11.2 °F 60% 30.56 in 8.0 mi NW 9.2 mph - N/A   Overcast
10:35 AM -0.4 °F -18.4 °F -13.0 °F 55% 30.56 in 10.0 mi WNW 12.7 mph - N/A   Overcast
10:55 AM -0.4 °F -19.2 °F -13.0 °F 55% 30.56 in 10.0 mi WNW 13.8 mph - N/A   Overcast
11:15 AM -2.2 °F -21.5 °F -13.0 °F 60% 30.55 in 10.0 mi NW 13.8 mph - N/A   Overcast
11:35 AM -2.2 °F -21.5 °F -13.0 °F 60% 30.55 in 10.0 mi NW 13.8 mph - N/A   Overcast
11:55 AM -2.2 °F -21.5 °F -13.0 °F 60% 30.56 in 10.0 mi NW 13.8 mph - N/A   Overcast
12:15 PM -2.2 °F -21.5 °F -14.8 °F 55% 30.55 in 10.0 mi NW 13.8 mph - N/A   Overcast
12:35 PM -2.2 °F -21.5 °F -13.0 °F 60% 30.55 in 10.0 mi WNW 13.8 mph - N/A   Overcast
12:55 PM -0.4 °F -19.2 °F -13.0 °F 55% 30.54 in 10.0 mi NW 13.8 mph - N/A   Overcast
1:15 PM -0.4 °F -19.2 °F -11.2 °F 60% 30.54 in 10.0 mi NW 13.8 mph - N/A   Overcast
1:35 PM -0.4 °F -19.9 °F -13.0 °F 55% 30.53 in 9.0 mi NW 15.0 mph - N/A   Mostly Cloudy
1:55 PM -0.4 °F -19.9 °F -11.2 °F 60% 30.52 in 3.0 mi NW 15.0 mph - N/A   Mostly Cloudy
2:15 PM -0.4 °F -19.9 °F -11.2 °F 60% 30.51 in 7.0 mi WNW 15.0 mph - N/A   Mostly Cloudy
2:35 PM -0.4 °F -21.7 °F -11.2 °F 60% 30.51 in 10.0 mi NW 18.4 mph - N/A   Scattered Clouds
2:55 PM -2.2 °F -23.5 °F -14.8 °F 55% 30.51 in 10.0 mi NW 17.3 mph - N/A   Mostly Cloudy
3:15 PM -2.2 °F -22.9 °F -14.8 °F 55% 30.51 in 10.0 mi WNW 16.1 mph - N/A   Scattered Clouds
3:35 PM -2.2 °F -22.9 °F -14.8 °F 55% 30.51 in 10.0 mi WNW 16.1 mph - N/A   Clear
3:55 PM -2.2 °F -22.9 °F -14.8 °F 55% 30.51 in 10.0 mi WNW 16.1 mph - N/A   Clear
4:15 PM -2.2 °F -22.9 °F -14.8 °F 55% 30.50 in 10.0 mi WNW 16.1 mph - N/A   Clear
4:35 PM -2.2 °F -23.5 °F -14.8 °F 55% 30.50 in 10.0 mi NW 17.3 mph - N/A   Clear
4:55 PM -2.2 °F -23.5 °F -14.8 °F 55% 30.49 in 10.0 mi NW 17.3 mph - N/A   Clear
5:15 PM -2.2 °F -22.2 °F -14.8 °F 55% 30.49 in 10.0 mi WNW 15.0 mph - N/A   Clear
5:35 PM -4.0 °F -25.8 °F -16.6 °F 55% 30.49 in 10.0 mi WNW 17.3 mph - N/A   Clear
5:55 PM -4.0 °F -24.5 °F -14.8 °F 60% 30.49 in 10.0 mi NW 15.0 mph - N/A   Clear
6:15 PM -5.8 °F -26.0 °F -16.6 °F 60% 30.48 in 10.0 mi WNW 13.8 mph - N/A   Clear
6:35 PM -5.8 °F -25.2 °F -16.6 °F 60% 30.48 in 10.0 mi WNW 12.7 mph - N/A   Clear
6:55 PM -5.8 °F -25.2 °F -16.6 °F 60% 30.47 in 10.0 mi WNW 12.7 mph - N/A   Clear
7:15 PM -5.8 °F -28.2 °F -18.4 °F 55% 30.46 in 10.0 mi WNW 17.3 mph - N/A   Clear
7:35 PM -7.6 °F -28.3 °F -18.4 °F 59% 30.46 in 10.0 mi WNW 13.8 mph - N/A   Clear
7:55 PM -7.6 °F -29.1 °F -18.4 °F 59% 30.46 in 10.0 mi WNW 15.0 mph - N/A   Clear
8:15 PM -7.6 °F -29.1 °F -18.4 °F 59% 30.45 in 10.0 mi WNW 15.0 mph - N/A   Clear
8:35 PM -7.6 °F -29.1 °F -18.4 °F 59% 30.44 in 10.0 mi WNW 15.0 mph - N/A   Clear
8:55 PM -7.6 °F -27.5 °F -18.4 °F 59% 30.44 in 10.0 mi WNW 12.7 mph - N/A   Clear
9:15 PM -7.6 °F -28.3 °F -18.4 °F 59% 30.43 in 10.0 mi West 13.8 mph - N/A   Clear
9:35 PM -9.4 °F -28.9 °F -20.2 °F 59% 30.43 in 10.0 mi West 11.5 mph - N/A   Clear
9:55 PM -9.4 °F -27.9 °F -20.2 °F 59% 30.43 in 10.0 mi West 10.4 mph - N/A   Clear
10:15 PM -9.4 °F -27.9 °F -20.2 °F 59% 30.42 in 10.0 mi West 10.4 mph - N/A   Clear
10:35 PM -9.4 °F -28.9 °F -20.2 °F 59% 30.42 in 10.0 mi West 11.5 mph - N/A   Clear
10:55 PM -9.4 °F -28.9 °F -18.4 °F 65% 30.41 in 10.0 mi West 11.5 mph - N/A   Mostly Cloudy
11:15 PM -9.4 °F -31.4 °F -18.4 °F 65% 30.40 in 10.0 mi West 15.0 mph - N/A   Mostly Cloudy
11:35 PM -7.6 °F -28.3 °F -18.4 °F 59% 30.39 in 10.0 mi West 13.8 mph - N/A   Overcast
11:55 PM -7.6 °F -28.3 °F -18.4 °F 59% 30.38 in 10.0 mi West 13.8 mph - N/A   Overcast